TimeCDT,TemperatureF,Dew PointF,Humidity,Sea Level PressureIn,VisibilityMPH,Wind Direction,Wind SpeedMPH,Gust SpeedMPH,PrecipitationIn,Events,Conditions,WindDirDegrees,DateUTC
12:53 AM,75.9,71.1,85,29.93,10.0,SSE,11.5,-,N/A,,Partly Cloudy,160,2012-10-14 05:53:00
1:53 AM,75.9,71.1,85,29.93,10.0,South,4.6,-,N/A,,Mostly Cloudy,170,2012-10-14 06:53:00
2:53 AM,75.0,71.1,87,29.92,10.0,SSE,5.8,-,N/A,,Overcast,160,2012-10-14 07:53:00
3:53 AM,73.9,71.1,91,29.91,10.0,SSE,8.1,-,N/A,,Overcast,160,2012-10-14 08:53:00
4:53 AM,73.9,71.1,91,29.92,9.0,Calm,Calm,-,N/A,,Overcast,0,2012-10-14 09:53:00
5:53 AM,75.0,72.0,90,29.95,9.0,North,3.5,-,N/A,,Overcast,10,2012-10-14 10:53:00
6:53 AM,73.0,71.1,93,29.96,9.0,Calm,Calm,-,N/A,,Mostly Cloudy,0,2012-10-14 11:53:00
7:08 AM,73.4,71.6,94,30.00,8.0,Calm,Calm,-,N/A,,Scattered Clouds,0,2012-10-14 12:08:00
7:18 AM,73.4,71.6,94,30.01,8.0,Calm,Calm,-,N/A,,Mostly Cloudy,0,2012-10-14 12:18:00
7:53 AM,73.9,71.1,91,30.01,8.0,NNE,5.8,-,N/A,,Overcast,20,2012-10-14 12:53:00
8:39 AM,73.4,69.8,88,30.06,1.8,North,8.1,-,0.06,Rain,Rain,360,2012-10-14 13:39:00
8:49 AM,71.6,69.8,94,30.06,4.0,North,4.6,-,0.07,Rain,Light Rain,360,2012-10-14 13:49:00
8:53 AM,72.0,70.0,93,30.04,9.0,NNE,3.5,-,0.07,Rain,Light Rain,20,2012-10-14 13:53:00
9:53 AM,73.9,71.1,91,30.04,10.0,SE,3.5,-,0.00,,Mostly Cloudy,130,2012-10-14 14:53:00
10:53 AM,77.0,73.0,88,30.03,10.0,SE,6.9,-,N/A,,Mostly Cloudy,130,2012-10-14 15:53:00
11:53 AM,80.1,72.0,76,30.03,10.0,South,5.8,-,N/A,,Mostly Cloudy,170,2012-10-14 16:53:00
12:00 PM,80.6,71.6,74,30.06,10.0,SE,6.9,-,N/A,,Overcast,140,2012-10-14 17:00:00
12:53 PM,82.0,72.0,71,30.02,10.0,SW,4.6,-,0.00,,Scattered Clouds,220,2012-10-14 17:53:00
1:53 PM,82.9,71.1,67,29.99,10.0,Variable,3.5,-,N/A,,Mostly Cloudy,0,2012-10-14 18:53:00
3:01 PM,82.4,71.6,70,30.01,10.0,South,4.6,-,N/A,,Mostly Cloudy,170,2012-10-14 20:01:00
3:30 PM,82.4,69.8,66,30.00,10.0,ENE,3.5,-,N/A,,Mostly Cloudy,70,2012-10-14 20:30:00
3:53 PM,84.0,71.1,65,29.96,10.0,South,3.5,-,N/A,,Partly Cloudy,170,2012-10-14 20:53:00
4:53 PM,84.9,69.1,59,29.96,10.0,Calm,Calm,-,N/A,,Scattered Clouds,0,2012-10-14 21:53:00
5:53 PM,84.0,70.0,63,29.96,10.0,SSE,5.8,-,N/A,,Partly Cloudy,150,2012-10-14 22:53:00
6:53 PM,82.9,64.9,54,29.97,10.0,NNE,4.6,-,N/A,,Mostly Cloudy,30,2012-10-14 23:53:00
7:53 PM,80.1,59.0,48,29.99,10.0,North,3.5,-,N/A,,Partly Cloudy,360,2012-10-15 00:53:00
8:53 PM,78.1,57.9,50,30.01,10.0,NNW,4.6,-,N/A,,Mostly Cloudy,330,2012-10-15 01:53:00
9:53 PM,75.9,59.0,56,30.02,10.0,Calm,Calm,-,N/A,,Partly Cloudy,0,2012-10-15 02:53:00
10:53 PM,73.9,60.1,62,30.04,10.0,SE,3.5,-,N/A,,Mostly Cloudy,130,2012-10-15 03:53:00
11:53 PM,72.0,59.0,64,30.05,10.0,Calm,Calm,-,N/A,,Mostly Cloudy,0,2012-10-15 04:53:00